Location: Neuvy Saint Sepulchre
(46.5953°N, 1.8122°E)
Time: 05:52:03
(UTC+02:00)

ISS - Pass Details

Date: 02 July 2021
Orbit: 417 x 422 km, 51.6° (Epoch: 16 June)

Event Time Altitude Azimuth Distance (km) Brightness Sun altitude
Exits shadow 05:03:50 - 250° (WSW) 1,543 -1.4 -8.6°
Reaches altitude 10° 05:03:56 10° 250° (WSW) 1,499 -1.5 -8.6°
Maximum altitude 05:07:18 73° 336° (NNW) 443 -3.6 -8.2°
Drops below altitude 10° 05:10:40 10° 62° (ENE) 1,502 0.5 -7.8°
Sets 05:12:47 0° 64° (ENE) 2,367 1.7 -7.5°
